This is the latest recevied weather packets stored in our database for station/object IZ5MMH-14. If no packets are shown the sender has not sent any weather packets the latest 10 day(s).
| Time | Temp. | Humidity | Pressure | Rain* | Wind** | Luminosity | Snow |
|---|---|---|---|---|---|---|---|
| 1777899000 | 23.33° C | 76% | 1018.2 hPa | - | - | - | - |
| 1777898400 | 22.78° C | 79% | 1018.2 hPa | - | - | - | - |
| 1777897800 | 23.33° C | 76% | 1018.4 hPa | - | - | - | - |
| 1777897199 | 23.33° C | 75% | 1018.4 hPa | - | - | - | - |
| 1777896600 | 23.33° C | 72% | 1018.5 hPa | - | - | - | - |
| 1777896000 | 23.33° C | 73% | 1018.3 hPa | - | - | - | - |
| 1777895400 | 23.33° C | 73% | 1018.3 hPa | - | - | - | - |
| 1777894799 | 23.33° C | 72% | 1018.3 hPa | - | - | - | - |
| 1777894200 | 23.33° C | 75% | 1018.4 hPa | - | - | - | - |
| 1777893600 | 23.33° C | 77% | 1018.6 hPa | - | - | - | - |
| 1777892999 | 23.33° C | 79% | 1018.8 hPa | - | - | - | - |
| 1777892400 | 22.78° C | 79% | 1018.7 hPa | - | - | - | - |
| 1777891800 | 22.78° C | 81% | 1018.8 hPa | - | - | - | - |
| 1777891200 | 22.22° C | 84% | 1018.9 hPa | - | - | - | - |
| 1777890600 | 22.22° C | 85% | 1019.1 hPa | - | - | - | - |
| 1777890000 | 22.22° C | 85% | 1018.9 hPa | - | - | - | - |
| 1777889400 | 22.22° C | 83% | 1018.9 hPa | - | - | - | - |
| 1777888800 | 22.22° C | 83% | 1019.1 hPa | - | - | - | - |
| 1777888200 | 22.22° C | 83% | 1019.2 hPa | - | - | - | - |
| 1777887600 | 22.22° C | 85% | 1019 hPa | - | - | - | - |
| 1777887000 | 21.67° C | 87% | 1019.2 hPa | - | - | - | - |
| 1777886399 | 21.67° C | 85% | 1019.3 hPa | - | - | - | - |
| 1777885800 | 21.67° C | 86% | 1019.2 hPa | - | - | - | - |
| 1777885199 | 21.67° C | 88% | 1019.1 hPa | - | - | - | - |
| 1777884600 | 21.11° C | 88% | 1019.2 hPa | - | - | - | - |
* Rain since midnight (hover to see other rain measurements)
** Current wind speed in m/s (hover to see current wind gust speed)